Date,TemperatureHighF,TemperatureAvgF,TemperatureLowF,DewpointHighF,DewpointAvgF,DewpointLowF,HumidityHigh,HumidityAvg,HumidityLow,PressureMaxIn,PressureMinIn,WindSpeedMaxMPH,WindSpeedAvgMPH,GustSpeedMaxMPH,PrecipitationSumIn
2013-2-1,58,49,44,49,45,41,97,89,69,30.31,30.25,8,0,8,0.00
2013-2-2,49,43,37,46,42,36,97,94,88,30.29,30.15,4,0,4,0.00
2013-2-3,50,42,29,49,40,28,97,96,95,30.22,30.14,0,0,0,0.01
2013-2-4,59,50,44,51,47,42,98,89,65,30.15,29.80,6,0,6,0.01
2013-2-5,55,50,44,47,45,42,97,84,64,29.89,29.77,17,2,17,0.24
2013-2-6,56,51,47,47,44,38,96,78,52,29.98,29.70,17,2,17,0.05
2013-2-7,56,46,37,45,39,34,94,78,49,30.09,29.71,20,1,20,0.08
2013-2-8,52,42,35,44,38,33,95,86,61,30.22,30.10,9,0,9,0.00
2013-2-9,49,43,40,42,39,37,95,88,74,30.26,30.17,5,0,5,0.00
2013-2-10,50,45,42,44,41,38,95,85,66,30.28,30.23,6,0,6,0.00
2013-2-11,49,45,39,45,41,37,95,87,66,30.29,30.24,7,0,7,0.02
2013-2-12,52,48,44,48,44,42,97,88,75,30.34,30.27,11,1,12,0.02
2013-2-13,50,45,42,44,40,37,92,82,69,30.44,30.27,16,2,16,0.02
2013-2-14,50,44,38,44,40,36,96,89,76,30.47,30.42,0,0,0,0.02
2013-2-15,57,45,36,45,40,33,94,85,62,30.47,30.10,6,0,6,0.00
2013-2-16,48,41,33,43,37,31,96,86,67,30.14,30.09,22,3,22,0.01
2013-2-18,38,38,38,34,34,34,85,85,85,29.68,29.68,0,0,1,0.00
2013-2-19,52,39,30,35,32,27,90,78,45,29.94,29.64,10,0,10,0.00
2013-2-20,45,36,28,37,32,25,94,84,58,29.98,29.91,12,1,12,0.02
2013-2-21,42,40,35,37,36,32,95,86,76,30.04,29.94,14,2,15,0.13
2013-2-22,45,41,35,39,36,32,90,84,73,30.03,29.67,27,5,27,0.35
2013-2-23,45,40,35,35,33,31,90,76,59,30.33,29.89,18,3,18,0.01
2013-2-24,41,38,35,34,33,31,86,82,71,30.33,30.28,5,0,5,0.00
2013-2-25,46,41,36,37,33,30,82,74,54,30.25,30.07,20,4,20,0.08
2013-2-26,46,41,35,33,31,27,86,68,47,30.28,30.16,14,2,14,0.00
2013-2-27,52,45,40,43,40,33,95,84,58,30.22,30.13,13,1,14,0.13
2013-2-28,52,47,42,50,45,40,97,95,89,30.27,30.10,9,0,9,0.48